Weather reports worldwide

Advertisment
Abbeville, France (7005): temperature & dewpoint: 13.03.2019 09:00:00 - 19.03.2019 09:00:00 (CET)Abbeville, France (7005): temperature 5cm: 13.03.2019 09:00:00 - 19.03.2019 09:00:00 (CET)Abbeville, France (7005): temperature -20cm & temperature -100cm: 13.03.2019 09:00:00 - 19.03.2019 09:00:00 (CET)Abbeville, France (7005): wind speed & gusts: 13.03.2019 09:00:00 - 19.03.2019 09:00:00 (CET)Abbeville, France (7005): wind direction: 13.03.2019 09:00:00 - 19.03.2019 09:00:00 (CET)Abbeville, France (7005): reduced air pressure: 13.03.2019 09:00:00 - 19.03.2019 09:00:00 (CET)Abbeville, France (7005): visibility: 13.03.2019 09:00:00 - 19.03.2019 09:00:00 (CET)Abbeville, France (7005): sunshine duration: 13.03.2019 09:00:00 - 19.03.2019 09:00:00 (CET)Abbeville, France (7005): precipitation: 13.03.2019 09:00:00 - 19.03.2019 09:00:00 (CET)
Date & Time tt [°C] td [°C] tt 5cm [°C] tt -20cm [°C] tt -100cm [°C] ff [km/h] ff [kn] fx [km/h] fx [kn] dd ppp [hPa] vv [km] sd [min] rr [mm]
19.03.2019 09:00:00 3,8 3,4 1,8 6,8 8,2 10 6 15 8 SSE 1028,5 10 60 0,0
19.03.2019 08:00:00 3,1 2,7 1,4 6,9 8,2 6 3 12 6 S 1028,0 8 38 0,0
19.03.2019 07:00:00 2,2 1,6 0,7 7,1 8,2 7 4 11 6 SSE 1027,2 6 0 0,2
19.03.2019 06:00:00 2,0 1,4 0,7 7,3 8,3 8 4 13 7 SSE 1027,2 4,3 0 0,0
19.03.2019 05:00:00 2,6 2,0 0,8 7,4 8,3 7 4 11 6 SSE 1026,9 6 0 0,0
19.03.2019 04:00:00 2,7 2,0 1,0 7,6 8,3 6 3 10 6 SSE 1026,4 6 0 0,0
19.03.2019 03:00:00 3,0 2,1 1,6 7,7 8,2 8 4 12 6 SSE 1026,2 6 0 0,0
19.03.2019 02:00:00 3,6 2,7 2,2 7,9 8,2 6 3 9 5 S 1026,0 8 0 0,0
19.03.2019 01:00:00 4,1 3,1 2,3 8,0 8,3 5 3 8 4 S 1025,9 8 0 0,0
19.03.2019 00:00:00 4,7 3,7 2,6 8,2 8,2 6 3 8 4 SSE 1025,6 11 0 0,0
18.03.2019 23:00:00 4,6 3,3 2,6 8,4 8,2 6 3 8 5 SSE 1025,2 10 0 0,0
18.03.2019 22:00:00 5,4 3,9 3,6 8,5 8,2 8 4 10 5 W 1024,9 16 0 0,0
18.03.2019 21:00:00 5,9 4,1 3,5 8,6 8,2 7 4 9 5 WSW 1024,6 18 0 0,0
18.03.2019 20:00:00 6,1 3,6 4,3 8,7 8,2 6 3 10 5 W 1024,1 20 0 0,0
18.03.2019 19:00:00 7,5 4,1 6,4 8,6 8,2 10 6 23 12 W 1023,7 20 36 0,0
18.03.2019 18:00:00 8,6 3,6 8,9 8,5 8,2 16 9 26 14 W 1023,1 20 45 0,0
18.03.2019 17:00:00 9,4 2,7 10,6 8,3 8,2 17 9 29 16 W 1022,5 20 58 0,0
18.03.2019 16:00:00 9,9 2,0 10,5 8,1 8,2 17 9 29 16 W 1022,4 20 56 0,0
18.03.2019 15:00:00 9,5 2,8 10,7 7,9 8,2 19 10 30 16 W 1022,3 20 24 0,0
18.03.2019 14:00:00 8,9 2,9 10,5 7,7 8,2 22 12 34 18 WNW 1022,1 20 9 0,0
18.03.2019 13:00:00 8,8 4,0 10,1 7,5 8,2 24 13 34 18 WNW 1022,1 19 34 0,0
18.03.2019 12:00:00 8,5 4,5 9,5 7,4 8,2 24 13 34 18 WNW 1022,0 19 29 0,0
18.03.2019 11:00:00 7,7 3,5 8,5 7,4 8,2 24 13 34 18 WNW 1021,5 19 17 0,0
18.03.2019 10:00:00 7,7 4,1 7,3 7,3 8,2 22 12 31 17 WNW 1020,9 20 26 0,0
18.03.2019 09:00:00 6,8 3,9 6,0 7,4 8,2 16 9 23 12 WNW 1020,2 20 6 0,0
18.03.2019 08:00:00 6,0 3,8 4,4 7,5 8,2 10 5 17 9 W 1019,6 20 7 0,0
18.03.2019 07:00:00 5,8 3,5 4,7 7,5 8,2 10 5 18 10 WNW 1018,8 20 0 0,0
18.03.2019 06:00:00 5,8 3,6 4,5 7,6 8,2 10 6 22 12 NW 1018,2 20 0 0,0
18.03.2019 05:00:00 5,4 3,1 4,3 7,7 8,2 16 9 26 14 WNW 1017,4 20 0 0,0
18.03.2019 04:00:00 6,0 3,2 5,0 7,8 8,2 16 8 31 17 WNW 1016,7 20 0 0,0
18.03.2019 03:00:00 6,1 3,1 4,9 7,9 8,2 14 8 29 16 WNW 1016,2 20 0 0,0
18.03.2019 02:00:00 6,2 2,6 5,1 8,0 8,2 19 11 33 18 WNW 1015,7 20 0 0,0
18.03.2019 01:00:00 6,8 2,7 5,2 8,0 8,2 20 11 34 18 WNW 1014,7 20 0 0,2
18.03.2019 00:00:00 6,9 3,0 6,0 8,1 8,2 19 10 36 19 W 1014,3 20 0 0,0
17.03.2019 23:00:00 7,2 1,9 5,4 8,2 8,2 20 11 44 24 W 1013,8 20 0 0,2
17.03.2019 22:00:00 7,1 3,7 5,3 8,4 8,1 30 16 48 26 WSW 1012,9 15 0 0,6
17.03.2019 21:00:00 7,1 3,3 6,2 8,5 8,2 21 11 49 26 WSW 1012,6 20 0 0,0
17.03.2019 20:00:00 7,1 2,0 6,0 8,6 8,2 28 15 45 24 WSW 1012,4 20 0 0,0
17.03.2019 19:00:00 7,1 1,8 6,2 8,6 8,1 26 14 51 28 WSW 1011,8 20 16 0,0
17.03.2019 18:00:00 7,9 1,3 7,5 8,6 8,1 34 19 53 29 W 1011,1 20 34 0,0
17.03.2019 17:00:00 8,0 0,9 7,7 8,6 8,1 34 19 57 31 W 1010,3 20 47 0,0
17.03.2019 16:00:00 8,4 1,1 6,4 8,5 8,1 40 21 61 33 W 1009,7 20 18 0,0
17.03.2019 15:00:00 8,0 1,2 8,0 8,5 8,2 39 21 59 32 W 1009,3 18 28 0,0
17.03.2019 14:00:00 8,2 2,6 7,9 8,4 8,1 33 18 53 29 W 1008,6 20 22 0,0
17.03.2019 13:00:00 7,7 1,5 7,3 8,4 8,1 35 19 53 28 W 1008,5 20 9 0,0
17.03.2019 12:00:00 7,2 3,4 5,2 8,4 8,1 26 14 47 26 WNW 1007,5 20 8 0,4
17.03.2019 11:00:00 8,1 2,1 7,2 8,4 8,1 35 19 51 28 W 1006,6 20 38 0,0
17.03.2019 10:00:00 7,6 2,3 7,5 8,5 8,1 32 18 46 25 W 1006,1 20 42 0,0
17.03.2019 09:00:00 7,7 2,8 6,2 8,6 8,1 30 16 47 25 W 1004,9 20 36 0,0
17.03.2019 08:00:00 6,9 2,8 5,7 8,7 8,1 22 12 39 21 W 1003,8 20 6 0,0
17.03.2019 07:00:00 7,1 2,8 6,2 8,8 8,1 25 14 39 21 W 1003,1 20 0 0,0
17.03.2019 06:00:00 7,3 4,8 6,4 8,9 8,1 22 12 38 21 W 1002,2 20 0 0,0
17.03.2019 05:00:00 7,4 6,7 6,5 9,0 8,1 20 11 39 21 W 1001,4 20 0 0,0
17.03.2019 04:00:00 7,4 6,7 6,6 9,0 8,1 32 18 61 33 W 1000,9 14 0 1,4
17.03.2019 03:00:00 8,8 6,8 7,6 9,1 8,1 24 13 44 24 WSW 1000,3 5 0 0,8
17.03.2019 02:00:00 9,3 5,8 8,0 9,2 8,1 22 12 54 29 SSW 1000,1 13 0 0,0
17.03.2019 01:00:00 9,9 4,7 9,1 9,3 8,1 21 11 51 28 SSW 1000,7 20 0 0,0
17.03.2019 00:00:00 10,1 4,2 9,6 9,3 8,1 21 12 53 29 SSW 1001,4 20 0 0,0
16.03.2019 23:00:00 10,4 3,9 9,8 9,4 8,1 26 14 59 32 SSW 1002,4 20 0 0,0
16.03.2019 22:00:00 10,7 4,2 10,1 9,5 8,1 27 14 58 31 SW 1003,6 20 0 0,0
16.03.2019 21:00:00 11,3 4,3 10,6 9,5 8,1 24 13 54 29 SW 1003,9 20 0 0,0
16.03.2019 20:00:00 12,1 5,5 11,4 9,5 8,1 15 8 41 22 SSW 1004,3 20 0 0,0
16.03.2019 19:00:00 12,7 5,6 11,6 9,4 8,1 16 9 34 18 SW 1004,6 20 0 0,0
16.03.2019 18:00:00 14,2 6,3 13,9 9,3 8,1 14 8 41 22 SW 1004,9 20 28 0,0
16.03.2019 17:00:00 14,4 6,5 14,2 9,1 8,1 19 10 40 22 SW 1005,6 20 23 0,0
16.03.2019 16:00:00 14,2 6,8 13,8 9,0 8,1 21 11 44 24 SW 1006,6 20 18 0,0
16.03.2019 15:00:00 13,0 5,6 13,1 8,9 8,1 27 15 51 28 WSW 1008,2 20 13 0,0
16.03.2019 14:00:00 12,2 5,8 11,5 8,8 8,0 27 14 47 26 WSW 1009,3 20 2 0,0
16.03.2019 13:00:00 11,1 5,8 11,1 8,8 8,1 22 12 46 25 WSW 1010,6 20 0 0,0
16.03.2019 12:00:00 10,8 6,0 10,4 8,8 8,1 23 13 51 27 WSW 1011,1 20 0 0,0
16.03.2019 11:00:00 10,6 6,0 10,1 8,8 8,0 24 13 56 30 WSW 1011,6 20 0 0,0
16.03.2019 10:00:00 10,5 6,3 10,1 8,8 8,1 24 13 56 30 WSW 1011,8 20 0 0,0
16.03.2019 09:00:00 10,3 6,3 9,4 8,8 8,1 23 12 49 26 SW 1012,3 20 0 0,0
16.03.2019 08:00:00 9,9 6,6 8,5 8,9 8,1 24 13 46 25 WSW 1012,8 20 0 0,0
16.03.2019 07:00:00 9,4 6,8 8,5 8,9 8,1 26 14 57 31 SW 1012,8 14 0 0,0
16.03.2019 06:00:00 9,9 7,3 8,9 8,9 8,0 23 13 63 34 SW 1013,1 20 0 0,0
16.03.2019 05:00:00 10,3 7,4 8,9 8,9 8,0 34 19 65 35 WSW 1013,5 20 0 0,0
16.03.2019 04:00:00 9,9 8,0 8,9 8,9 8,0 34 18 61 33 WSW 1013,5 20 0 0,0
16.03.2019 03:00:00 9,7 8,6 9,0 8,9 8,0 23 12 54 29 WSW 1014,3 4,3 0 0,0
16.03.2019 02:00:00 10,3 8,7 9,2 8,9 8,0 36 20 70 38 WSW 1014,6 20 0 0,0
16.03.2019 01:00:00 10,5 9,1 9,3 8,9 8,0 41 22 72 39 WSW 1014,9 20 0 0,2
16.03.2019 00:00:00 10,3 9,5 9,4 9,0 8,0 42 23 74 40 WSW 1015,0 16 0 0,2
15.03.2019 23:00:00 10,1 9,6 9,3 9,0 8,1 44 24 69 37 WSW 1014,6 11 0 0,2
15.03.2019 22:00:00 10,2 9,3 9,5 9,0 8,0 41 22 85 46 WSW 1014,3 4,0 0 0,4
15.03.2019 21:00:00 10,2 9,1 9,5 9,0 8,0 46 25 74 40 WSW 1014,0 5 0 0,0
15.03.2019 20:00:00 10,3 9,1 9,6 9,0 8,1 49 26 87 47 WSW 1013,5 4,9 0 0,0
15.03.2019 19:00:00 10,7 9,1 10,2 8,9 8,0 49 27 80 43 W 1013,0 9 0 0,0
15.03.2019 18:00:00 10,9 9,0 10,6 8,9 8,0 45 25 77 41 WSW 1012,6 12 0 0,0
15.03.2019 17:00:00 11,1 9,4 10,5 8,8 8,0 50 27 87 47 WSW 1012,2 13 0 0,0
15.03.2019 16:00:00 11,4 9,5 11,2 8,8 8,0 49 27 90 49 WSW 1012,3 19 0 0,0
15.03.2019 15:00:00 11,4 9,6 10,3 8,7 8,1 54 29 87 47 W 1012,0 13 0 0,0
15.03.2019 14:00:00 11,1 9,5 10,6 8,6 8,0 51 28 93 50 W 1011,8 10 0 0,0
15.03.2019 13:00:00 11,5 9,6 10,5 8,6 8,0 53 28 87 47 WSW 1011,8 14 0 0,0
15.03.2019 12:00:00 11,0 9,4 10,5 8,5 8,0 52 28 82 44 W 1011,8 9 0 0,0
15.03.2019 11:00:00 11,0 9,3 10,9 8,4 8,0 50 27 86 47 W 1011,5 15 0 0,0
15.03.2019 10:00:00 11,0 9,1 10,5 8,4 8,0 52 28 81 44 W 1011,0 18 0 0,0
15.03.2019 09:00:00 10,6 8,7 10,0 8,4 8,0 49 26 82 44 W 1010,6 13 0 0,0
15.03.2019 08:00:00 10,4 9,0 9,6 8,3 8,1 54 29 93 50 W 1009,9 9 0 0,0
15.03.2019 07:00:00 10,4 9,0 9,9 8,3 8,1 58 31 94 51 W 1009,2 10 0 0,0
15.03.2019 06:00:00 10,5 8,9 9,9 8,2 8,0 58 31 90 49 W 1008,8 10 0 0,0
15.03.2019 05:00:00 10,4 9,5 9,4 8,2 8,1 54 29 83 45 W 1009,0 9 0 0,0
15.03.2019 04:00:00 10,3 9,5 9,5 8,2 8,1 50 27 76 41 W 1009,2 9 0 0,2
15.03.2019 03:00:00 10,1 9,5 9,4 8,1 8,1 43 23 66 36 W 1010,0 3,9 0 1,2
15.03.2019 02:00:00 9,9 9,3 9,4 8,1 8,0 35 19 58 32 W 1010,8 6 0 1,2
15.03.2019 01:00:00 10,0 9,2 9,4 8,1 8,1 32 17 55 30 W 1011,5 8 0 0,4
15.03.2019 00:00:00 10,0 8,8 9,2 8,1 8,1 31 17 50 27 W 1011,5 13 0 0,0
14.03.2019 23:00:00 9,7 8,0 8,7 8,1 8,0 29 15 49 27 W 1011,3 13 0 0,0
14.03.2019 22:00:00 9,6 7,4 8,5 8,1 8,0 31 17 51 27 W 1010,8 16 0 0,0
14.03.2019 21:00:00 9,5 7,4 8,7 8,1 8,1 31 17 52 28 W 1010,5 14 0 0,0
14.03.2019 20:00:00 9,7 7,5 9,0 8,1 8,1 34 19 66 35 W 1009,6 14 0 0,0
14.03.2019 19:00:00 10,1 7,9 9,5 8,0 8,1 41 22 69 37 W 1008,5 14 0 0,0
14.03.2019 18:00:00 10,5 8,4 10,1 7,9 8,0 42 23 74 40 W 1007,2 17 2 0,0
14.03.2019 17:00:00 10,8 8,9 10,6 7,8 8,0 46 25 83 45 W 1006,3 13 0 0,0
14.03.2019 16:00:00 10,9 9,2 10,5 7,7 8,0 53 28 91 49 W 1005,5 14 0 0,0
14.03.2019 15:00:00 10,6 9,0 9,7 7,6 8,1 51 28 87 47 W 1005,1 13 0 0,0
14.03.2019 14:00:00 10,2 8,6 9,5 7,5 8,0 56 30 90 49 W 1005,0 8 0 0,0
14.03.2019 13:00:00 10,2 8,5 9,1 7,4 8,1 55 30 88 47 W 1005,1 8 0 0,0
14.03.2019 12:00:00 9,5 8,4 8,1 7,3 8,1 56 30 98 53 W 1005,4 11 0 0,2
14.03.2019 11:00:00 9,0 7,9 8,0 7,3 8,1 51 28 91 49 WSW 1006,1 3,5 0 1,4
14.03.2019 10:00:00 8,7 7,8 7,8 7,2 8,1 53 29 88 47 WSW 1006,4 7 0 2,2
14.03.2019 09:00:00 8,5 7,4 7,2 7,2 8,1 45 25 72 39 WSW 1007,6 7 0 2,0
14.03.2019 08:00:00 7,9 7,0 6,7 7,2 8,0 38 20 66 35 WSW 1008,7 8 0 1,7
14.03.2019 07:00:00 7,8 6,7 6,9 7,2 8,1 41 22 80 43 W 1010,3 5 0 2,0
14.03.2019 06:00:00 7,8 6,4 6,9 7,2 8,1 34 19 57 31 WSW 1011,1 4,7 0 1,8
14.03.2019 05:00:00 7,9 6,2 6,7 7,2 8,1 29 15 58 31 WSW 1012,4 8 0 0,6
14.03.2019 04:00:00 7,8 5,4 6,2 7,2 8,1 28 15 44 24 W 1013,7 14 0 0,2
14.03.2019 03:00:00 7,4 4,9 6,5 7,2 8,1 28 15 48 26 W 1014,8 14 0 0,0
14.03.2019 02:00:00 8,1 4,5 7,0 7,3 8,1 29 16 46 25 W 1015,2 18 0 0,0
14.03.2019 01:00:00 7,9 4,5 6,9 7,4 8,1 28 15 50 27 W 1015,5 16 0 0,0
14.03.2019 00:00:00 7,9 3,9 6,9 7,4 8,1 26 14 47 26 W 1015,6 20 0 0,0
13.03.2019 23:00:00 8,3 3,9 7,5 7,5 8,1 29 16 50 27 W 1015,5 19 0 0,0
13.03.2019 22:00:00 8,5 3,5 7,7 7,5 8,1 31 17 62 33 W 1015,5 19 0 0,0
13.03.2019 21:00:00 8,7 3,1 7,8 7,5 8,1 35 19 59 32 W 1015,0 19 0 0,0
13.03.2019 20:00:00 8,6 3,6 7,8 7,5 8,1 37 20 59 32 W 1014,5 18 0 0,0
13.03.2019 19:00:00 8,8 3,8 8,1 7,5 8,1 38 21 64 35 W 1013,8 18 0 0,0
13.03.2019 18:00:00 9,1 3,9 8,5 7,5 8,1 42 23 67 36 W 1012,8 19 0 0,0
13.03.2019 17:00:00 9,4 4,0 9,2 7,4 8,1 43 23 66 36 W 1012,2 18 7 0,0
13.03.2019 16:00:00 9,4 4,4 8,7 7,3 8,1 44 24 71 39 W 1011,9 16 0 0,0
13.03.2019 15:00:00 9,2 4,4 9,0 7,1 8,1 43 23 74 40 W 1011,6 17 26 0,0
13.03.2019 14:00:00 10,3 5,1 9,8 7,0 8,1 47 25 78 42 W 1010,9 15 22 0,0
13.03.2019 13:00:00 9,4 4,2 7,2 6,9 8,1 48 26 72 39 W 1011,0 16 0 0,0
13.03.2019 12:00:00 8,8 4,0 8,0 6,8 8,1 43 23 76 41 W 1010,3 15 4 0,0
13.03.2019 11:00:00 9,1 4,3 7,1 6,7 8,1 42 23 67 36 W 1009,6 15 7 0,0
13.03.2019 10:00:00 8,3 4,1 6,5 6,7 8,1 37 20 68 37 W 1009,5 16 0 0,0
13.03.2019 09:00:00 8,1 3,5 6,2 6,7 8,1 38 21 58 32 WSW 1008,9 16 0 0,0

tt = temperature
td = dewpoint
tt 5cm = temperature 5cm
tt -20cm = temperature -20cm
tt -100cm = temperature -100cm
ff = wind speed
fx = gusts
dd = wind direction
ppp = reduced air pressure
vv = visibility
sd = sunshine duration
rr = precipitation

Next stations